Ashtabula, OH

4:41 PM EDT on May 29, 2017 (GMT -0400)
Ashtabula County

Weather History for KHZY - December, 2013

Change the Weather History Date:

Thursday, December 5, 2013

  Actual Average (KGKJ) Record (KGKJ)
Temperature  
Mean Temperature 46 °F -  
Max Temperature 60 °F 38 °F 68 °F (2001)
Min Temperature 33 °F 25 °F -3 °F (1966)
Degree Days  
Heating Degree Days 18    
Moisture  
Dew Point 40 °F    
Average Humidity 75    
Maximum Humidity 89    
Minimum Humidity 64    
Precipitation  
Precipitation 0.05 in - - ()
Sea Level Pressure  
Sea Level Pressure 29.91 in    
Wind  
Wind Speed 11 mph (West)    
Max Wind Speed 17 mph    
Max Gust Speed 29 mph    
Visibility 8 miles    
Events Rain , Snow    
Averages and records for this station are not official NWS values.
T = Trace of Precipitation, MM = Missing Value Source: NWS Daily Summary

Daily Weather History Graph

Daily Weather History Graph

Search for Another Location

Airport or City:

Trip Planner

Search our weather history database for the weather conditions in past years. The results will help you decide how hot, cold, wet, or windy it might be!

Date:

Astronomy

Dec. 05, 2013 Rise Set
Actual Time 7:34 AM EST 4:52 PM EST
Civil Twilight 7:03 AM EST 5:23 PM EST
Nautical Twilight 6:28 AM EST 5:58 PM EST
Astronomical Twilight 5:55 AM EST 6:31 PM EST
Moon 9:52 AM EST (12/5) 8:12 PM EST (12/5)
Length of Visible Light 10h 19m
Length of Day
9h 17m
Waxing Crescent, 10% of the Moon is Illuminated
Dec 5
Waxing Crescent
Dec 9
First Quarter
Dec 17
Full
Dec 25
Last Quarter
Jan 1
New

Hourly Weather History & Observations

Time (EST) Temp. Windchill Dew Point Humidity Pressure Visibility Wind Dir Wind Speed Gust Speed Precip Events Conditions
12:53 AM 55.9 °F - 44.1 °F 64% 29.78 in 10.0 mi South 15.0 mph 21.9 mph N/A   Overcast
1:53 AM 57.0 °F - 45.0 °F 64% 29.77 in 10.0 mi South 15.0 mph 24.2 mph N/A   Mostly Cloudy
2:53 AM 57.0 °F - 46.0 °F 67% 29.77 in 10.0 mi South 12.7 mph 19.6 mph N/A   Mostly Cloudy
3:53 AM 57.9 °F - 48.0 °F 70% 29.77 in 10.0 mi SSW 11.5 mph - N/A   Partly Cloudy
4:53 AM 57.9 °F - 48.0 °F 70% 29.77 in 10.0 mi South 12.7 mph - N/A   Overcast
5:53 AM 57.9 °F - 48.9 °F 72% 29.77 in 10.0 mi South 13.8 mph - N/A   Overcast
6:53 AM 57.9 °F - 48.9 °F 72% 29.78 in 10.0 mi South 9.2 mph - N/A   Mostly Cloudy
7:06 AM 57.2 °F - 50.0 °F 77% 29.79 in 10.0 mi South 9.2 mph - N/A   Overcast
7:28 AM 57.2 °F - 50.0 °F 77% 29.79 in 10.0 mi South 9.2 mph - N/A   Overcast
7:53 AM 57.9 °F - 50.0 °F 75% 29.79 in 10.0 mi South 11.5 mph 17.3 mph N/A   Mostly Cloudy
8:53 AM 57.9 °F - 51.1 °F 78% 29.80 in 10.0 mi South 11.5 mph - N/A   Mostly Cloudy
9:53 AM 60.1 °F - 52.0 °F 75% 29.82 in 10.0 mi SSW 12.7 mph - N/A   Overcast
10:17 AM 60.8 °F - 51.8 °F 72% 29.82 in 9.0 mi SSW 11.5 mph - N/A   Overcast
10:25 AM 60.8 °F - 51.8 °F 72% 29.82 in 9.0 mi SSW 8.1 mph - N/A   Overcast
10:50 AM 59.0 °F - 51.8 °F 77% 29.82 in 9.0 mi WNW 8.1 mph - N/A   Overcast
10:53 AM 59.0 °F - 52.0 °F 78% 29.83 in 9.0 mi WNW 9.2 mph - N/A   Overcast
11:28 AM 57.2 °F - 50.0 °F 77% 29.82 in 8.0 mi WNW 8.1 mph - N/A   Mostly Cloudy
11:53 AM 57.0 °F - 48.9 °F 74% 29.82 in 8.0 mi WNW 9.2 mph - N/A   Mostly Cloudy
12:30 PM 55.4 °F - 48.2 °F 77% 29.84 in 7.0 mi WNW 17.3 mph 24.2 mph N/A   Overcast
12:51 PM 50.0 °F - 42.8 °F 76% 29.84 in 8.0 mi WNW 9.2 mph - N/A   Overcast
12:53 PM 50.0 °F - 43.0 °F 77% 29.84 in 8.0 mi WNW 10.4 mph - N/A   Overcast
1:53 PM 46.0 °F 39.3 °F 37.0 °F 71% 29.86 in 10.0 mi WNW 16.1 mph 28.8 mph N/A   Scattered Clouds
2:53 PM 44.1 °F 39.0 °F 34.0 °F 68% 29.90 in 10.0 mi WNW 9.2 mph 23.0 mph N/A   Mostly Cloudy
3:53 PM 41.0 °F 33.9 °F 33.1 °F 73% 29.94 in 10.0 mi WNW 12.7 mph 21.9 mph 0.00 in   Overcast
4:53 PM 39.9 °F 33.4 °F 30.0 °F 68% 29.97 in 10.0 mi WNW 10.4 mph 26.5 mph N/A   Overcast
5:53 PM 39.0 °F 32.8 °F 30.9 °F 73% 30.00 in 10.0 mi WNW 9.2 mph - N/A   Mostly Cloudy
6:53 PM 39.0 °F 32.8 °F 30.9 °F 73% 30.04 in 10.0 mi West 9.2 mph 18.4 mph N/A   Mostly Cloudy
7:11 PM 37.4 °F 30.3 °F 30.2 °F 75% 30.03 in 10.0 mi West 10.4 mph 16.1 mph N/A   Overcast
7:19 PM 37.4 °F 29.3 °F 30.2 °F 75% 30.04 in 10.0 mi West 12.7 mph - N/A   Overcast
7:53 PM 37.9 °F 30.9 °F 30.0 °F 73% 30.04 in 10.0 mi West 10.4 mph - N/A   Overcast
8:44 PM 37.4 °F 29.3 °F 28.4 °F 70% 30.04 in 10.0 mi WNW 12.7 mph 18.4 mph 0.00 in   Overcast
8:53 PM 37.9 °F 30.9 °F 28.9 °F 70% 30.05 in 10.0 mi WNW 10.4 mph 19.6 mph 0.00 in Rain Light Rain
9:27 PM 37.4 °F 30.3 °F 28.4 °F 70% 30.03 in 10.0 mi WNW 10.4 mph - 0.00 in   Overcast
9:53 PM 37.0 °F 29.8 °F 28.9 °F 73% 30.05 in 10.0 mi WNW 10.4 mph - 0.01 in Rain Light Rain
10:53 PM 35.1 °F 29.3 °F 30.0 °F 82% 30.09 in 5.0 mi WNW 6.9 mph - 0.02 in Snow Light Snow
11:15 PM 33.8 °F 28.6 °F 30.2 °F 87% 30.09 in 2.0 mi WNW 5.8 mph - 0.01 in Snow Light Snow
11:22 PM 33.8 °F 28.6 °F 30.2 °F 87% 30.09 in 1.2 mi WNW 5.8 mph - 0.02 in Snow Light Snow
11:28 PM 33.8 °F 29.6 °F 30.2 °F 87% 30.09 in 1.0 mi WNW 4.6 mph - 0.02 in Snow Light Snow
11:33 PM 33.8 °F 30.8 °F 30.2 °F 87% 30.08 in 1.2 mi West 3.5 mph - 0.02 in Snow Light Snow
11:50 PM 33.8 °F 29.6 °F 30.2 °F 87% 30.09 in 3.0 mi West 4.6 mph - 0.02 in Snow Light Snow
11:53 PM 33.1 °F 27.7 °F 30.0 °F 89% 30.10 in 4.0 mi West 5.8 mph - 0.02 in Rain Light Rain